| time (UTC) | temp F | wind direction | speed MPH | gust MPH | rain 1hr in | rain 24hr in | rain mn in | humidity % | barometer mb |
| 20260505053034 | 69 | 222 | 8.0 | 10.0 | 0.00 | 0.02 | 0.01 | 52 | 1008.5 |
| 20260505052931 | 69 | 223 | 5.0 | 9.0 | 0.00 | 0.02 | 0.01 | 52 | 1008.5 |
| 20260505050931 | 69 | 246 | 6.0 | 11.0 | 0.01 | 0.02 | 0.01 | 52 | 1008.5 |
| 20260505041746 | 69 | 250 | 4.0 | 11.0 | 0.00 | 0.01 | 0.00 | 54 | 1009.0 |
| 20260505040832 | 69 | 253 | 7.0 | 9.0 | 0.00 | 0.01 | 0.00 | 54 | 1009.2 |
| 20260505035926 | 70 | 253 | 4.0 | 8.0 | 0.00 | 0.01 | 0.01 | 54 | 1009.2 |
| 20260505034927 | 70 | 233 | 6.0 | 9.0 | 0.00 | 0.01 | 0.01 | 54 | 1009.2 |
| 20260505033927 | 70 | 233 | 5.0 | 8.0 | 0.00 | 0.01 | 0.01 | 54 | 1009.3 |
| 20260505032944 | 70 | 242 | 4.0 | 7.0 | 0.00 | 0.01 | 0.01 | 54 | 1009.3 |
| 20260505031928 | 70 | 247 | 4.0 | 6.0 | 0.00 | 0.01 | 0.01 | 53 | 1009.3 |
| 20260505030942 | 70 | 236 | 4.0 | 6.0 | 0.00 | 0.01 | 0.01 | 54 | 1009.3 |
| 20260505030027 | 70 | 232 | 3.0 | 6.0 | 0.00 | 0.01 | 0.01 | 54 | 1009.2 |
| 20260505025926 | 70 | 244 | 5.0 | 7.0 | 0.00 | 0.01 | 0.01 | 54 | 1009.2 |
| 20260505024927 | 70 | 232 | 5.0 | 9.0 | 0.00 | 0.01 | 0.01 | 54 | 1009.0 |
| 20260505024827 | 70 | 233 | 5.0 | 7.0 | 0.00 | 0.01 | 0.01 | 54 | 1009.0 |
| 20260505023827 | 70 | 180 | 2.0 | 4.0 | 0.00 | 0.01 | 0.01 | 55 | 1008.9 |
| 20260505023726 | 70 | 180 | 3.0 | 5.0 | 0.00 | 0.01 | 0.01 | 55 | 1008.9 |
| 20260505022743 | 70 | 180 | 5.0 | 7.0 | 0.00 | 0.01 | 0.01 | 54 | 1008.7 |
| 20260505021727 | 70 | 180 | 3.0 | 6.0 | 0.00 | 0.01 | 0.01 | 54 | 1008.6 |
| 20260505020826 | 70 | 250 | 3.0 | 5.0 | 0.00 | 0.01 | 0.01 | 54 | 1008.5 |
| 20260505014925 | 70 | 207 | 1.0 | 3.0 | 0.00 | 0.01 | 0.01 | 55 | 1008.2 |
| 20260505012029 | 70 | 247 | 1.0 | 3.0 | 0.00 | 0.01 | 0.01 | 53 | 1008.0 |
| 20260505011927 | 70 | 248 | 2.0 | 6.0 | 0.00 | 0.01 | 0.01 | 52 | 1008.0 |
| 20260505010927 | 71 | 247 | 1.0 | 4.0 | 0.00 | 0.01 | 0.01 | 52 | 1007.9 |
| 20260505005928 | 71 | 247 | 4.0 | 7.0 | 0.00 | 0.01 | 0.01 | 51 | 1007.8 |
| 20260505004926 | 72 | 249 | 3.0 | 5.0 | 0.00 | 0.01 | 0.01 | 50 | 1007.9 |
| 20260505004827 | 72 | 254 | 2.0 | 4.0 | 0.00 | 0.01 | 0.01 | 50 | 1007.8 |
| 20260505003846 | 72 | 223 | 3.0 | 5.0 | 0.00 | 0.01 | 0.01 | 49 | 1007.9 |
| 20260505003741 | 72 | 225 | 4.0 | 6.0 | 0.00 | 0.01 | 0.01 | 48 | 1007.9 |
| 20260505002726 | 73 | 245 | 3.0 | 6.0 | 0.00 | 0.01 | 0.01 | 47 | 1007.8 |
| 20260505002644 | 73 | 245 | 3.0 | 4.0 | 0.00 | 0.01 | 0.01 | 48 | 1007.8 |
| 20260505001628 | 73 | 247 | 2.0 | 4.0 | 0.00 | 0.01 | 0.01 | 47 | 1007.8 |
| 20260505001527 | 73 | 238 | 3.0 | 6.0 | 0.00 | 0.01 | 0.01 | 46 | 1007.9 |
| 20260505000526 | 74 | 232 | 3.0 | 5.0 | 0.00 | 0.01 | 0.01 | 46 | 1007.9 |
| 20260504235529 | 74 | 236 | 6.0 | 14.0 | 0.00 | 0.01 | 0.01 | 44 | 1007.9 |
| 20260504235445 | 74 | 248 | 5.0 | 12.0 | 0.00 | 0.01 | 0.01 | 44 | 1008.0 |
| 20260504234443 | 75 | 223 | 4.0 | 6.0 | 0.00 | 0.01 | 0.01 | 44 | 1008.1 |
| 20260504233527 | 74 | 235 | 5.0 | 9.0 | 0.00 | 0.01 | 0.01 | 44 | 1008.3 |
| 20260504233427 | 74 | 252 | 5.0 | 12.0 | 0.00 | 0.01 | 0.01 | 44 | 1008.2 |
| 20260504232441 | 75 | 237 | 5.0 | 9.0 | 0.00 | 0.01 | 0.01 | 43 | 1008.3 |
| 20260504231526 | 75 | 237 | 8.0 | 14.0 | 0.00 | 0.01 | 0.01 | 44 | 1008.4 |
| 20260504230543 | 75 | 254 | 6.0 | 10.0 | 0.00 | 0.01 | 0.01 | 46 | 1008.3 |
| 20260504225627 | 75 | 233 | 7.0 | 10.0 | 0.00 | 0.01 | 0.01 | 47 | 1008.3 |
| 20260504224628 | 75 | 252 | 6.0 | 9.0 | 0.00 | 0.01 | 0.01 | 49 | 1008.5 |
| 20260504223627 | 75 | 236 | 2.0 | 5.0 | 0.00 | 0.01 | 0.01 | 49 | 1008.5 |
| 20260504222627 | 75 | 255 | 1.0 | 3.0 | 0.00 | 0.01 | 0.01 | 48 | 1008.8 |
| 20260504222544 | 75 | 255 | 2.0 | 5.0 | 0.00 | 0.01 | 0.01 | 48 | 1008.8 |
| 20260504221527 | 75 | 247 | 2.0 | 3.0 | 0.00 | 0.01 | 0.01 | 47 | 1008.8 |
| 20260504221445 | 75 | 247 | 2.0 | 3.0 | 0.00 | 0.01 | 0.01 | 47 | 1008.9 |
| 20260504220525 | 74 | 234 | 3.0 | 6.0 | 0.00 | 0.01 | 0.01 | 47 | 1008.9 |
| 20260504214526 | 74 | 247 | 2.0 | 3.0 | 0.00 | 0.01 | 0.01 | 46 | 1008.8 |
| 20260504213526 | 74 | 250 | 4.0 | 6.0 | 0.00 | 0.01 | 0.01 | 45 | 1009.3 |
| 20260504210626 | 75 | 251 | 3.0 | 4.0 | 0.00 | 0.02 | 0.01 | 46 | 1009.7 |
| 20260504205626 | 75 | 249 | 4.0 | 6.0 | 0.00 | 0.02 | 0.01 | 46 | 1009.9 |
| 20260504204626 | 74 | 240 | 6.0 | 12.0 | 0.00 | 0.02 | 0.01 | 46 | 1009.8 |
| 20260504203642 | 74 | 252 | 5.0 | 11.0 | 0.00 | 0.02 | 0.01 | 48 | 1010.0 |
| 20260504202542 | 74 | 247 | 8.0 | 12.0 | 0.00 | 0.02 | 0.01 | 50 | 1010.2 |
| 20260504201526 | 73 | 256 | 6.0 | 9.0 | 0.00 | 0.02 | 0.01 | 51 | 1010.5 |
| 20260504201427 | 73 | 246 | 7.0 | 9.0 | 0.00 | 0.02 | 0.01 | 51 | 1010.3 |
| 20260504200426 | 73 | 250 | 5.0 | 11.0 | 0.00 | 0.02 | 0.01 | 51 | 1010.3 |
| 20260504195525 | 73 | 241 | 7.0 | 12.0 | 0.00 | 0.02 | 0.01 | 52 | 1010.5 |
| 20260504190625 | 67 | 249 | 1.0 | 3.0 | 0.00 | 0.02 | 0.01 | 64 | 1011.7 |
| 20260504190543 | 67 | 247 | 1.0 | 2.0 | 0.00 | 0.02 | 0.01 | 64 | 1011.8 |
| 20260504185526 | 67 | 239 | 5.0 | 7.0 | 0.00 | 0.02 | 0.01 | 64 | 1011.8 |
| 20260504184527 | 68 | 247 | 1.0 | 2.0 | 0.00 | 0.02 | 0.01 | 59 | 1011.9 |
| 20260504183526 | 68 | 245 | 5.0 | 9.0 | 0.00 | 0.02 | 0.01 | 58 | 1011.9 |
| 20260504182527 | 68 | 237 | 5.0 | 12.0 | 0.00 | 0.02 | 0.01 | 57 | 1011.9 |
| 20260504182427 | 68 | 239 | 7.0 | 11.0 | 0.00 | 0.02 | 0.01 | 56 | 1011.8 |
| 20260504181426 | 69 | 249 | 8.0 | 11.0 | 0.00 | 0.02 | 0.01 | 56 | 1011.6 |
| 20260504180525 | 69 | 246 | 8.0 | 12.0 | 0.00 | 0.02 | 0.01 | 55 | 1011.3 |
| 20260504180426 | 70 | 240 | 9.0 | 14.0 | 0.00 | 0.02 | 0.01 | 55 | 1011.3 |
| 20260504175525 | 71 | 243 | 7.0 | 13.0 | 0.00 | 0.02 | 0.01 | 55 | 1011.1 |
| 20260504174427 | 70 | 241 | 5.0 | 9.0 | 0.00 | 0.02 | 0.01 | 56 | 1010.9 |
| 20260504173525 | 70 | 239 | 9.0 | 14.0 | 0.00 | 0.02 | 0.01 | 57 | 1010.8 |
| 20260504173443 | 70 | 261 | 6.0 | 10.0 | 0.00 | 0.02 | 0.01 | 57 | 1010.6 |
| 20260504172426 | 70 | 250 | 6.0 | 9.0 | 0.00 | 0.02 | 0.01 | 58 | 1010.9 |
| 20260504172326 | 70 | 246 | 5.0 | 8.0 | 0.00 | 0.02 | 0.01 | 58 | 1010.9 |
| 20260504170427 | 68 | 251 | 4.0 | 5.0 | 0.00 | 0.02 | 0.01 | 59 | 1011.1 |
| 20260504150741 | 64 | 180 | 5.0 | 8.0 | 0.00 | 0.02 | 0.01 | 60 | 1012.0 |
| 20260504130125 | 57 | 222 | 6.0 | 10.0 | 0.00 | 0.02 | 0.01 | 67 | 1012.7 |
| 20260504100525 | 54 | 225 | 0.0 | 0.0 | 0.00 | 0.01 | 0.00 | 64 | 1013.0 |
| 20260504100442 | 54 | 225 | 0.0 | 2.0 | 0.00 | 0.01 | 0.00 | 63 | 1013.0 |
| 20260504081724 | 55 | 225 | 4.0 | 7.0 | 0.00 | 0.01 | 0.00 | 58 | 1013.6 |
| 20260504080725 | 55 | 225 | 2.0 | 3.0 | 0.00 | 0.01 | 0.00 | 58 | 1013.8 |